DW2099 Weather Reports


time (UTC)temp
C
wind
direction
speed
KPH
gust
KPH
rain 1hr
cm
rain 24hr
cm
rain mn
cm
humidity
%
barometer
mb
20260506044516 24 315 1.6 4.8 0.00 0.00 0.00 90 1009.0
20260506043516 24 293 1.6 4.8 0.00 0.00 0.00 89 1008.9
20260506042516 24 315 3.2 8.0 0.00 0.00 0.00 89 1008.8
20260506041536 24 315 3.2 8.0 0.00 0.00 0.00 89 1008.9
20260506040516 24 315 1.6 4.8 0.00 0.00 0.00 88 1008.9
20260506035516 25 293 3.2 8.0 0.00 0.00 0.00 88 1008.7
20260506034516 25 315 1.6 6.4 0.00 0.00 0.00 88 1008.4
20260506033516 25 315 3.2 8.0 0.00 0.00 0.00 88 1008.3
20260506032516 25 293 1.6 6.4 0.00 0.00 0.00 88 1008.3
20260506031516 25 293 1.6 6.4 0.00 0.00 0.00 87 1008.2
20260506030516 25 315 1.6 6.4 0.00 0.00 0.00 87 1008.0
20260506025516 25 293 1.6 4.8 0.00 0.00 0.00 86 1007.8
20260506024516 25 293 1.6 4.8 0.00 0.00 0.00 86 1007.6
20260506023516 25 315 1.6 6.4 0.00 0.00 0.00 86 1007.7
20260506022516 25 293 3.2 6.4 0.00 0.00 0.00 85 1007.4
20260506021516 26 315 3.2 9.7 0.00 0.00 0.00 85 1007.0
20260506020516 26 315 3.2 8.0 0.00 0.00 0.00 84 1007.3
20260506015516 26 315 3.2 8.0 0.00 0.00 0.00 84 1007.1
20260506014516 26 315 1.6 9.7 0.00 0.00 0.00 83 1007.1
20260506013516 26 315 3.2 8.0 0.00 0.00 0.00 83 1007.0
20260506012516 27 293 1.6 6.4 0.00 0.00 0.00 82 1006.9
20260506011516 27 293 1.6 6.4 0.00 0.00 0.00 82 1006.9
20260506010536 27 315 3.2 8.0 0.00 0.00 0.00 82 1006.8
20260506005536 27 315 1.6 4.8 0.00 0.00 0.00 81 1006.5
20260506004516 27 293 1.6 9.7 0.00 0.00 0.00 80 1006.4
20260506003516 27 293 3.2 9.7 0.00 0.00 0.00 80 1006.3
20260506002516 27 315 3.2 11.3 0.00 0.00 0.00 79 1006.2
20260506001517 28 315 3.2 8.0 0.00 0.00 0.00 79 1006.0
20260506000516 28 315 1.6 6.4 0.00 0.00 0.00 78 1006.2
20260505235516 28 293 1.6 4.8 0.00 0.00 0.00 77 1006.0
20260505234516 28 315 3.2 9.7 0.00 0.00 0.00 76 1005.9
20260505233556 29 293 3.2 11.3 0.00 0.00 0.00 75 1005.9
20260505232516 29 293 1.6 12.9 0.00 0.00 0.00 74 1006.0
20260505231515 29 293 1.6 8.0 0.00 0.00 0.00 74 1006.0
20260505230536 29 315 1.6 11.3 0.00 0.00 0.00 73 1005.9
20260505225536 29 293 1.6 6.4 0.00 0.00 0.00 74 1006.0
20260505224516 29 293 3.2 9.7 0.00 0.00 0.00 74 1006.0
20260505223515 29 293 3.2 9.7 0.00 0.00 0.00 74 1005.8
20260505222515 29 270 1.6 4.8 0.00 0.00 0.00 74 1006.1
20260505221556 29 293 1.6 6.4 0.00 0.00 0.00 74 1006.0
20260505220517 29 293 3.2 8.0 0.00 0.00 0.00 74 1006.2
20260505215516 30 293 4.8 11.3 0.00 0.00 0.00 72 1006.3
20260505214518 29 338 1.6 4.8 0.00 0.00 0.00 74 1006.3
20260505213517 28 315 4.8 14.5 0.00 0.00 0.00 74 1006.3
20260505212518 28 315 4.8 9.7 0.00 0.00 0.00 74 1006.4
20260505211517 29 315 3.2 9.7 0.00 0.00 0.00 75 1006.6
20260505210517 29 270 1.6 9.7 0.00 0.00 0.00 74 1006.7
20260505205518 28 315 3.2 9.7 0.00 0.00 0.00 75 1007.0
20260505204517 28 270 3.2 9.7 0.00 0.00 0.00 75 1007.2
20260505203517 28 315 4.8 16.1 0.00 0.00 0.00 75 1007.3
20260505202517 28 90 3.2 6.4 0.00 0.00 0.00 76 1007.5
20260505201537 28 315 4.8 11.3 0.00 0.00 0.00 76 1007.5
20260505200517 28 293 3.2 9.7 0.00 0.00 0.00 76 1007.8
20260505195517 28 293 4.8 16.1 0.00 0.00 0.00 77 1007.9
20260505194518 27 293 4.8 9.7 0.00 0.00 0.00 78 1008.0
20260505193518 27 293 3.2 9.7 0.00 0.00 0.00 79 1008.3
20260505192538 27 315 4.8 11.3 0.00 0.00 0.00 79 1008.3
20260505191517 27 293 3.2 9.7 0.00 0.00 0.00 79 1008.5
20260505190517 27 315 1.6 8.0 0.00 0.00 0.00 80 1008.6
20260505185557 27 90 1.6 4.8 0.00 0.00 0.00 80 1008.7
20260505184517 27 90 3.2 19.3 0.00 0.00 0.00 80 1008.9
20260505183518 27 293 1.6 6.4 0.00 0.00 0.00 81 1008.9
20260505182517 26 293 3.2 8.0 0.00 0.00 0.00 81 1009.1
20260505181517 26 293 3.2 12.9 0.00 0.00 0.00 83 1009.2
20260505180517 26 90 4.8 16.1 0.00 0.00 0.00 83 1009.2
20260505175518 25 293 4.8 11.3 0.00 0.00 0.00 84 1009.4
20260505174538 25 68 4.8 12.9 0.00 0.00 0.00 85 1009.4
20260505173537 25 315 3.2 14.5 0.00 0.00 0.00 85 1009.4
20260505172517 25 293 1.6 6.4 0.00 0.00 0.00 86 1009.5
20260505171517 25 293 3.2 14.5 0.00 0.00 0.00 86 1009.4
20260505170517 25 293 1.6 6.4 0.00 0.00 0.00 87 1009.5
20260505165517 24 0.0 3.2 0.00 0.00 0.00 88 1009.5
20260505164537 24 68 3.2 9.7 0.00 0.00 0.00 88 1009.7
20260505163537 23 315 1.6 4.8 0.00 0.00 0.00 88 1009.7
20260505162517 23 315 1.6 11.3 0.00 0.00 0.00 89 1009.7
20260505161517 23 338 1.6 8.0 0.00 0.00 0.00 90 1009.7
20260505160517 23 293 3.2 14.5 0.00 0.00 0.00 90 1009.8
20260505152517 23 90 3.2 11.3 0.00 0.00 0.00 90 1009.6
20260505151517 23 113 1.6 9.7 0.00 0.00 0.00 90 1009.4
20260505150517 23 293 1.6 8.0 0.00 0.00 0.00 90 1009.4
20260505140517 22 270 1.6 9.7 0.00 0.00 0.00 90 1009.2
20260505124517 22 270 1.6 6.4 0.00 0.00 0.00 91 1008.4
20260505123517 22 293 3.2 9.7 0.00 0.00 0.00 91 1008.5
20260505122517 22 293 3.2 11.3 0.00 0.00 0.00 91 1008.5
20260505121516 22 315 1.6 6.4 0.00 0.00 0.00 91 1008.3
20260505120517 22 315 1.6 9.7 0.00 0.00 0.00 90 1008.1
20260505115517 21 293 3.2 11.3 0.00 0.00 0.00 90 1008.2
20260505114517 21 315 1.6 8.0 0.00 0.00 0.00 90 1008.4
20260505113516 21 293 3.2 6.4 0.00 0.00 0.00 90 1008.2
20260505112517 21 68 1.6 6.4 0.00 0.00 0.00 90 1008.2
20260505111557 21 315 1.6 6.4 0.00 0.00 0.00 89 1008.3
20260505110517 21 293 1.6 9.7 0.00 0.00 0.00 89 1008.1
20260505101517 21 45 1.6 20.9 0.00 0.00 0.00 89 1008.4
20260505100516 21 293 3.2 9.7 0.00 0.00 0.00 89 1008.3
20260505095517 21 293 1.6 6.4 0.00 0.00 0.00 89 1008.4
20260505094516 21 293 3.2 11.3 0.00 0.00 0.00 90 1008.4
20260505093516 21 315 3.2 12.9 0.00 0.00 0.00 90 1008.5
20260505092517 21 293 1.6 6.4 0.00 0.00 0.00 90 1008.6
20260505091516 21 270 1.6 6.4 0.00 0.00 0.00 90 1008.6
20260505090516 21 315 1.6 4.8 0.00 0.00 0.00 90 1008.5
20260505085516 21 315 1.6 16.1 0.00 0.00 0.00 90 1008.5
20260505084516 21 315 3.2 8.0 0.00 0.00 0.00 89 1008.9
20260505083516 21 338 3.2 11.3 0.00 0.00 0.00 89 1008.7
20260505082516 21 45 3.2 14.5 0.00 0.00 0.00 89 1008.9
20260505081516 21 293 3.2 14.5 0.00 0.00 0.00 89 1009.1
20260505080557 21 315 1.6 6.4 0.00 0.00 0.00 89 1009.3
20260505075556 21 293 1.6 9.7 0.00 0.00 0.00 89 1009.3
20260505074516 21 270 1.6 8.0 0.00 0.00 0.00 89 1009.3
20260505073517 21 293 3.2 9.7 0.00 0.00 0.00 89 1009.4
20260505072516 21 293 4.8 14.5 0.00 0.00 0.00 89 1009.5
20260505071516 21 315 3.2 8.0 0.00 0.00 0.00 89 1009.6
20260505070557 21 293 4.8 14.5 0.00 0.00 0.00 89 1009.8
20260505065516 21 293 3.2 9.7 0.00 0.00 0.00 88 1009.9
20260505064516 21 293 4.8 14.5 0.00 0.00 0.00 88 1010.1
20260505063536 21 293 4.8 14.5 0.00 0.00 0.00 88 1010.1
20260505062516 21 315 3.2 11.3 0.00 0.00 0.00 88 1010.2
20260505061516 21 23 4.8 14.5 0.00 0.00 0.00 88 1010.3
20260505060516 21 315 1.6 6.4 0.00 0.00 0.00 88 1010.1
20260505055516 21 315 3.2 12.9 0.00 0.00 0.00 88 1010.0
20260505054516 21 315 3.2 9.7 0.00 0.00 0.00 88 1009.9
20260505053536 21 293 3.2 8.0 0.00 0.00 0.00 88 1010.0
20260505052516 21 315 3.2 6.4 0.00 0.00 0.00 87 1009.9
20260505051516 21 293 3.2 12.9 0.00 0.00 0.00 87 1010.1
20260505050516 21 293 3.2 9.7 0.00 0.00 0.00 87 1010.0